Regional Weather Roundup
Issued by NWS Albany, NY

Home | Current Version | Previous Version | Graphics & Text | Print | Product List | Glossary On
Versions: 1 2 3 4 5 6 7 8 9 10 11 12 13 14 15 16 17 18 19 20 21 22 23 24 25 26 27 28 29 30 31 32 33 34 35 36 37 38 39 40 41 42 43 44 45 46 47 48 49 50
000
ASUS41 KALY 282010
RWRALY

NEW YORK STATE HOURLY WEATHER ROUNDUP
NATIONAL WEATHER SERVICE ALBANY NY
300 PM EST TUE FEB 28 2017

NOTE: "FAIR" INDICATES FEW OR NO CLOUDS BELOW 12,000 FEET WITH NO
SIGNIFICANT WEATHER AND/OR NO OBSTRUCTIONS TO VISIBILITY.

NYZ032-033-038>043-046>054-057>066-NYZ062>081-082-084-282100-
EAST


CITY           SKY/WX    TMP DP  RH WIND       PRES   REMARKS
ALBANY         PTSUNNY   60  30  32 E8        30.15F
GLENS FALLS    SUNNY     54  32  43 CALM      30.17F
POUGHKEEPSIE   SUNNY     60  32  34 SW8       30.16F
NEWBURGH       MOSUNNY   59  39  47 SE15      30.19F
MONTGOMERY     MOSUNNY   63  38  39 S8        30.14F
WHITE PLAINS   PTSUNNY   55  45  68 SE8       30.20F
ISLIP          CLOUDY    55  49  80 SE7       30.23S
NEW YORK CITY  PTSUNNY   52  41  66 NE9       30.20F
CENTRAL PARK   CLOUDY    56  49  77 S8        30.22F
$$

NYZ005>009-017-018-044>046-055-056-282100-
CENTRAL


CITY           SKY/WX    TMP DP  RH WIND       PRES   REMARKS
FULTON         CLOUDY    55  36  48 VRB5      30.04F
SYRACUSE       CLOUDY    58  34  40 SE13      30.04F
ROME           CLOUDY    52  38  58 E8        30.11F
ELMIRA         CLOUDY    61  32  33 SW15      30.04F
BINGHAMTON     CLOUDY    58  30  34 SW12      30.06F
MONTICELLO     MOSUNNY   61  34  36 SE15      30.15F
$$

NYZ026>034-041>043-087-282100-
NORTH


CITY           SKY/WX    TMP DP  RH WIND       PRES   REMARKS
WATERTOWN      CLOUDY    53  35  50 S5        30.06F
FORT DRUM      NOT AVBL
OGDENSBURG     FAIR      52  32  45 CALM      30.08F
MASSENA        CLOUDY    46  30  53 NE13      30.12F
SARANAC LAKE   CLOUDY    44  31  60 SE7       30.09F
PLATTSBURGH    CLOUDY    49  30  48 SE14      30.16F
$$

NYZ001>004-010>016-019>021-085-282100-
WEST


CITY           SKY/WX    TMP DP  RH WIND       PRES   REMARKS
NIAGARA FALLS  CLOUDY    57  37  47 S9        29.95F
BUFFALO        LGT RAIN  58  36  43 S10       29.96F
DUNKIRK        CLOUDY    58  39  49 SE8       29.94F
JAMESTOWN      CLOUDY    55  37  50 S15       29.96F
WELLSVILLE     CLOUDY    56  32  40 S9        30.01F
ROCHESTER      CLOUDY    58  39  49 SW3       30.00F
PENN YAN       CLOUDY    59  31  34 S9        30.03F
$$

             KEY
       WCI = WIND CHILL INDEX
       VSB = VISIBILITY
       HX  = HEAT INDEX
$$



USA.gov is the U.S. government's official web portal to all federal, state and local government web resources and services.